Location: Lane
(33.5226°N, 79.8788°W)
Time: 20:54:11
(UTC+00:00)

Courier 1B Rocket - Pass Details

Date: 06 October 2022
Orbit: 920 x 1202 km, 28.3° (Epoch: 01 December)

Event Time Altitude Azimuth Distance (km) Brightness Sun altitude
Rises 19:43:45 0° 200° (SSW) 4,028 8.9 36.4°
Reaches altitude 10° 19:48:46 10° 172° (S) 3,015 8.0 35.6°
Maximum altitude 19:51:30 12° 151° (SSE) 2,813 7.6 35.1°
Drops below altitude 10° 19:54:10 10° 129° (SE) 2,945 7.5 34.7°
Sets 19:58:54 0° 101° (E) 3,831 7.8 33.9°
